EW8444 Weather Reports


Display with metric or nautical units.
time (UTC)temp
F
wind
direction
speed
MPH
gust
MPH
rain 1hr
in
rain 24hr
in
rain mn
in
humidity
%
barometer
mb
20260508204412 69 177 2.0 7.0 0.00 0.00 0.00 47 1013.8
20260508203912 69 224 3.0 6.0 0.00 0.00 0.00 47 1013.8
20260508203406 69 194 3.0 6.0 0.00 0.00 0.00 46 1013.8
20260508202909 70 219 3.0 6.0 0.00 0.00 0.00 45 1013.8
20260508202415 70 226 1.0 2.0 0.00 0.00 0.00 46 1013.8
20260508201909 70 227 0.0 6.0 0.00 0.00 0.00 47 1013.9
20260508201406 70 217 0.0 3.0 0.00 0.00 0.00 46 1014.0
20260508200915 70 217 0.0 5.0 0.00 0.00 0.00 47 1014.3
20260508200406 70 240 0.0 3.0 0.00 0.00 0.00 46 1014.1
20260508195909 70 248 1.0 3.0 0.00 0.00 0.00 45 1014.2
20260508195409 70 252 1.0 4.0 0.00 0.00 0.00 47 1014.3
20260508194909 70 207 2.0 5.0 0.00 0.00 0.00 45 1014.5
20260508194406 70 117 2.0 5.0 0.00 0.00 0.00 47 1014.4
20260508193912 70 223 2.0 3.0 0.00 0.00 0.00 45 1014.5
20260508193409 70 281 4.0 4.0 0.00 0.00 0.00 45 1014.7
20260508192909 70 278 1.0 8.0 0.00 0.00 0.00 44 1014.9
20260508192406 70 246 2.0 4.0 0.00 0.00 0.00 45 1014.8
20260508191906 70 250 0.0 4.0 0.00 0.00 0.00 46 1014.7
20260508191412 70 161 1.0 9.0 0.00 0.00 0.00 44 1014.7
20260508190906 70 218 7.0 9.0 0.00 0.00 0.00 46 1015.0
20260508190406 70 237 2.0 4.0 0.00 0.00 0.00 44 1015.1
20260508185915 70 188 1.0 8.0 0.00 0.00 0.00 45 1015.0
20260508185406 70 250 3.0 5.0 0.00 0.00 0.00 45 1015.0
20260508184906 70 231 3.0 4.0 0.00 0.00 0.00 43 1015.1
20260508184406 69 215 1.0 7.0 0.00 0.00 0.00 46 1015.2
20260508183906 69 236 3.0 6.0 0.00 0.00 0.00 41 1015.1
20260508183406 69 210 4.0 4.0 0.00 0.00 0.00 44 1015.0
20260508182909 69 257 1.0 7.0 0.00 0.00 0.00 40 1015.3
20260508182406 69 228 1.0 5.0 0.00 0.00 0.00 43 1015.3
20260508181912 69 180 1.0 4.0 0.00 0.00 0.00 42 1015.3
20260508181406 69 246 2.0 6.0 0.00 0.00 0.00 43 1015.3
20260508180906 69 263 5.0 7.0 0.00 0.00 0.00 43 1015.2
20260508180406 69 284 1.0 7.0 0.00 0.00 0.00 44 1015.3
20260508175909 69 235 3.0 7.0 0.00 0.00 0.00 44 1015.5
20260508175406 68 88 0.0 3.0 0.00 0.00 0.00 41 1015.5
20260508174906 68 271 0.0 5.0 0.00 0.00 0.00 45 1015.7
20260508174412 69 236 3.0 6.0 0.00 0.00 0.00 39 1015.9
20260508173906 68 234 1.0 3.0 0.00 0.00 0.00 41 1015.9
20260508173406 67 241 0.0 5.0 0.00 0.00 0.00 39 1015.9
20260508172906 67 240 0.0 6.0 0.00 0.00 0.00 44 1015.9
20260508172409 67 204 4.0 7.0 0.00 0.00 0.00 40 1015.9
20260508171912 67 242 1.0 4.0 0.00 0.00 0.00 39 1016.0
20260508171409 66 190 2.0 3.0 0.00 0.00 0.00 43 1016.2
20260508170909 66 190 3.0 7.0 0.00 0.00 0.00 42 1016.3
20260508170406 66 201 2.0 4.0 0.00 0.00 0.00 41 1016.3
20260508165906 66 212 2.0 3.0 0.00 0.00 0.00 43 1016.4
20260508165406 65 213 3.0 6.0 0.00 0.00 0.00 41 1016.6
20260508164912 65 239 2.0 4.0 0.00 0.00 0.00 41 1016.6
20260508164406 65 233 2.0 3.0 0.00 0.00 0.00 41 1016.8
20260508163909 65 211 1.0 2.0 0.00 0.00 0.00 43 1016.9
20260508163409 64 220 1.0 5.0 0.00 0.00 0.00 44 1016.9
20260508162906 63 221 2.0 5.0 0.00 0.00 0.00 45 1016.9
20260508162409 63 277 1.0 4.0 0.00 0.00 0.00 44 1016.8
20260508161912 64 252 3.0 6.0 0.00 0.00 0.00 44 1016.9
20260508161409 63 68 0.0 2.0 0.00 0.00 0.00 46 1016.9
20260508160909 63 68 1.0 5.0 0.00 0.00 0.00 43 1017.0
20260508160406 62 67 0.0 4.0 0.00 0.00 0.00 44 1017.1
20260508155909 61 267 1.0 4.0 0.00 0.00 0.00 46 1017.1
20260508155409 61 240 4.0 4.0 0.00 0.00 0.00 47 1017.3
20260508154906 61 76 2.0 4.0 0.00 0.00 0.00 46 1017.4
20260508154406 61 76 0.0 3.0 0.00 0.00 0.00 48 1017.4
20260508153906 60 76 0.0 3.0 0.00 0.00 0.00 47 1017.4
20260508153409 60 77 2.0 4.0 0.00 0.00 0.00 52 1017.5
20260508152906 59 287 1.0 2.0 0.00 0.00 0.00 51 1017.5
20260508152412 59 287 0.0 2.0 0.00 0.00 0.00 54 1017.5
20260508151906 58 287 0.0 3.0 0.00 0.00 0.00 55 1017.5
20260508151409 58 287 0.0 1.0 0.00 0.00 0.00 56 1017.4
20260508150915 58 287 0.0 5.0 0.00 0.00 0.00 55 1017.4
20260508150409 57 287 1.0 5.0 0.00 0.00 0.00 56 1017.4
20260508145906 57 244 1.0 3.0 0.00 0.00 0.00 58 1017.5
20260508145409 56 244 2.0 3.0 0.00 0.00 0.00 55 1017.5
20260508144906 56 242 1.0 4.0 0.00 0.00 0.00 61 1017.5
20260508144412 56 242 2.0 4.0 0.00 0.00 0.00 63 1017.6
20260508143906 55 218 0.0 2.0 0.00 0.00 0.00 68 1017.6
20260508143406 54 218 2.0 3.0 0.00 0.00 0.00 70 1017.7
20260508142909 54 217 0.0 1.0 0.00 0.00 0.00 74 1017.8
20260508142406 53 217 0.0 2.0 0.00 0.00 0.00 77 1017.8
20260508141909 53 218 1.0 4.0 0.00 0.00 0.00 78 1017.9
20260508141406 52 343 0.0 0.0 0.00 0.00 0.00 83 1017.9
20260508140906 52 343 0.0 0.0 0.00 0.00 0.00 84 1017.9
20260508140409 51 342 0.0 3.0 0.00 0.00 0.00 87 1017.8
20260508135915 51 343 0.0 2.0 0.00 0.00 0.00 87 1017.9
20260508135409 50 345 0.0 2.0 0.00 0.00 0.00 88 1017.9
20260508134906 50 345 0.0 1.0 0.00 0.00 0.00 90 1017.8
20260508134409 49 345 0.0 0.0 0.00 0.00 0.00 90 1017.9
20260508133906 49 345 0.0 0.0 0.00 0.00 0.00 90 1017.9
20260508133415 48 345 0.0 0.0 0.00 0.00 0.00 91 1017.9
20260508132906 48 345 0.0 0.0 0.00 0.00 0.00 91 1018.0
20260508132409 47 345 0.0 0.0 0.00 0.00 0.00 91 1018.0
20260508131906 47 345 0.0 0.0 0.00 0.00 0.00 91 1018.0
20260508131406 47 345 0.0 1.0 0.00 0.00 0.00 91 1017.9
20260508130906 47 345 0.0 1.0 0.00 0.00 0.00 91 1018.0
20260508130406 47 345 0.0 3.0 0.00 0.00 0.00 91 1018.0
20260508125915 46 344 0.0 0.0 0.00 0.00 0.00 91 1018.0
20260508125406 46 344 0.0 2.0 0.00 0.00 0.00 91 1017.9
20260508124909 46 344 1.0 2.0 0.00 0.00 0.00 91 1017.8
20260508124412 46 344 1.0 2.0 0.00 0.00 0.00 91 1017.8
20260508123906 46 344 0.0 1.0 0.00 0.00 0.00 91 1017.7
20260508123412 46 344 0.0 1.0 0.00 0.00 0.00 91 1017.8
20260508122912 46 344 0.0 1.0 0.00 0.00 0.00 91 1017.7
20260508122406 46 344 1.0 1.0 0.00 0.00 0.00 91 1017.7
20260508121906 46 344 0.0 2.0 0.00 0.00 0.00 91 1017.6
20260508121406 46 344 0.0 1.0 0.00 0.00 0.00 91 1017.6
20260508120912 45 344 1.0 1.0 0.00 0.00 0.00 91 1017.6
20260508120406 45 344 0.0 1.0 0.00 0.00 0.00 91 1017.5
20260508115912 45 344 0.0 1.0 0.00 0.00 0.00 91 1017.4
20260508115406 45 344 1.0 2.0 0.00 0.00 0.00 91 1017.3
20260508114909 45 344 0.0 2.0 0.00 0.00 0.00 91 1017.4
20260508114406 45 344 0.0 2.0 0.00 0.00 0.00 91 1017.2
20260508113906 45 344 0.0 1.0 0.00 0.00 0.00 91 1017.1
20260508113409 45 344 0.0 1.0 0.00 0.01 0.00 91 1017.0
20260508112906 45 344 0.0 0.0 0.00 0.01 0.00 91 1017.0
20260508112412 45 344 0.0 1.0 0.00 0.02 0.00 91 1016.9
20260508111906 45 344 0.0 0.0 0.00 0.03 0.00 91 1016.8
20260508111406 45 344 0.0 2.0 0.00 0.04 0.00 91 1016.7
20260508110906 46 344 0.0 0.0 0.00 0.04 0.00 91 1016.5
20260508110412 45 344 0.0 1.0 0.00 0.04 0.00 91 1016.4
20260508105906 45 344 0.0 1.0 0.00 0.05 0.00 91 1016.4
20260508105406 45 344 0.0 0.0 0.00 0.05 0.00 91 1016.3
20260508104906 45 344 0.0 0.0 0.00 0.05 0.00 91 1016.3
20260508104406 45 344 0.0 1.0 0.00 0.06 0.00 91 1016.3
20260508103906 45 344 0.0 1.0 0.00 0.07 0.00 91 1016.2
20260508103406 45 344 0.0 0.0 0.00 0.07 0.00 91 1016.2
20260508102906 46 344 0.0 2.0 0.00 0.07 0.00 91 1016.1
20260508102412 46 344 0.0 0.0 0.00 0.07 0.00 91 1016.1
20260508101906 46 344 0.0 2.0 0.00 0.07 0.00 91 1016.0
20260508101409 46 343 0.0 0.0 0.00 0.08 0.00 91 1015.8
20260508100906 46 343 0.0 1.0 0.00 0.09 0.00 91 1015.8
20260508100409 46 343 0.0 1.0 0.00 0.10 0.00 91 1015.6
20260508095906 46 343 0.0 1.0 0.00 0.10 0.00 91 1015.7
20260508095406 46 343 0.0 0.0 0.00 0.10 0.00 91 1015.6
20260508094909 46 343 0.0 1.0 0.00 0.10 0.00 91 1015.5
20260508094412 46 343 0.0 0.0 0.00 0.10 0.00 91 1015.6
20260508093915 46 343 0.0 0.0 0.00 0.10 0.00 91 1015.7
20260508093412 46 343 0.0 0.0 0.00 0.10 0.00 91 1015.6
20260508092909 46 343 0.0 1.0 0.00 0.10 0.00 91 1015.7
20260508092406 46 343 0.0 1.0 0.00 0.10 0.00 91 1015.7
20260508091909 46 343 0.0 0.0 0.00 0.10 0.00 91 1015.7
20260508091406 46 343 0.0 0.0 0.00 0.10 0.00 91 1015.6
20260508090912 47 343 0.0 0.0 0.00 0.10 0.00 91 1015.5
20260508090409 47 343 0.0 1.0 0.00 0.10 0.00 91 1015.6
20260508085415 47 340 0.0 2.0 0.00 0.10 0.00 91 1015.4
20260508084909 47 340 0.0 3.0 0.00 0.10 0.00 91 1015.5
20260508084406 47 340 0.0 3.0 0.00 0.10 0.00 91 1015.4
20260508083906 47 16 0.0 2.0 0.00 0.10 0.00 91 1015.4
20260508083406 47 17 1.0 2.0 0.00 0.10 0.00 91 1015.3
20260508082906 47 17 0.0 1.0 0.00 0.10 0.00 91 1015.2
20260508082409 47 17 0.0 2.0 0.00 0.10 0.00 91 1015.3
20260508081906 47 17 0.0 2.0 0.00 0.10 0.00 91 1015.3
20260508081409 47 17 0.0 2.0 0.00 0.10 0.00 91 1015.4
20260508080912 47 17 1.0 2.0 0.00 0.10 0.00 91 1015.3
20260508080409 47 19 0.0 1.0 0.00 0.10 0.00 91 1015.0
20260508075906 48 19 1.0 2.0 0.00 0.10 0.00 91 1015.2
20260508075415 48 23 0.0 2.0 0.00 0.10 0.00 91 1015.2
20260508074906 48 30 0.0 2.0 0.00 0.10 0.00 91 1015.3
20260508074409 48 30 1.0 2.0 0.00 0.10 0.00 91 1015.4
20260508073906 48 30 0.0 0.0 0.00 0.10 0.00 91 1015.3
20260508073406 48 30 0.0 1.0 0.00 0.10 0.00 91 1015.3
20260508072915 48 30 0.0 0.0 0.00 0.10 0.00 91 1015.3
20260508072406 48 30 0.0 0.0 0.00 0.10 0.00 91 1015.2
20260508071906 48 30 0.0 1.0 0.00 0.10 0.00 91 1015.3
20260508071406 48 30 1.0 3.0 0.00 0.10 0.00 91 1015.3
20260508070906 48 322 0.0 0.0 0.00 0.10 0.00 91 1015.3
20260508070412 48 322 0.0 1.0 0.00 0.10 0.00 91 1015.3
20260508065909 48 322 0.0 2.0 0.00 0.10 0.00 91 1015.3
20260508065409 48 322 0.0 3.0 0.00 0.10 0.00 91 1015.3
20260508064906 48 327 0.0 3.0 0.00 0.10 0.00 91 1015.3
20260508064412 48 333 3.0 3.0 0.00 0.10 0.00 91 1015.2
20260508063906 47 324 0.0 2.0 0.00 0.10 0.00 91 1015.3
20260508063406 47 323 1.0 3.0 0.00 0.10 0.00 91 1015.3
20260508062906 47 325 0.0 3.0 0.00 0.10 0.00 91 1015.3
20260508062412 47 315 1.0 3.0 0.00 0.10 0.00 91 1015.4
20260508061912 47 318 0.0 3.0 0.00 0.10 0.00 91 1015.4
20260508061409 47 317 1.0 3.0 0.00 0.10 0.00 91 1015.4
20260508060906 47 319 0.0 4.0 0.00 0.10 0.00 91 1015.4
20260508060406 47 346 3.0 3.0 0.00 0.10 0.00 91 1015.4
20260508055906 47 348 0.0 2.0 0.00 0.10 0.00 90 1015.4
20260508055406 47 348 0.0 2.0 0.00 0.10 0.00 90 1015.4
20260508054909 47 348 2.0 2.0 0.00 0.10 0.00 90 1015.5
20260508054406 47 350 0.0 0.0 0.00 0.10 0.00 90 1015.4
20260508053906 47 350 0.0 0.0 0.00 0.10 0.00 90 1015.5
20260508053406 47 350 0.0 0.0 0.00 0.10 0.00 90 1015.7
20260508052909 47 350 0.0 0.0 0.00 0.10 0.00 90 1015.6
20260508052412 47 350 0.0 0.0 0.00 0.10 0.00 90 1015.7
20260508051909 47 350 0.0 0.0 0.00 0.10 0.00 90 1015.7
20260508051412 47 350 0.0 0.0 0.00 0.10 0.00 90 1015.6
20260508050909 47 350 0.0 0.0 0.00 0.10 0.00 90 1015.7
20260508050406 47 350 0.0 0.0 0.00 0.10 0.00 90 1015.7
20260508045909 47 350 0.0 2.0 0.00 0.10 0.00 90 1015.6
20260508045406 47 350 0.0 2.0 0.00 0.10 0.00 89 1015.6
20260508044912 47 350 0.0 1.0 0.00 0.10 0.00 89 1015.5
20260508044406 47 350 0.0 3.0 0.00 0.10 0.00 88 1015.5
20260508043909 47 5 0.0 0.0 0.00 0.10 0.00 88 1015.5
20260508043409 47 5 0.0 0.0 0.00 0.10 0.00 88 1015.5
20260508042906 47 5 0.0 1.0 0.00 0.10 0.00 88 1015.3
20260508042415 47 5 0.0 0.0 0.00 0.10 0.00 87 1015.5
20260508041909 47 5 0.0 0.0 0.00 0.11 0.00 87 1015.5
20260508041406 47 5 0.0 0.0 0.00 0.11 0.00 87 1015.4
20260508040906 47 5 0.0 0.0 0.00 0.11 0.00 87 1015.3
20260508040409 48 5 0.0 0.0 0.00 0.12 0.00 87 1015.2
20260508035909 48 5 0.0 0.0 0.00 0.12 0.00 87 1015.4
20260508035406 48 5 0.0 0.0 0.00 0.12 0.00 87 1015.5
20260508034906 48 5 0.0 0.0 0.00 0.13 0.00 86 1015.5
20260508034409 48 5 0.0 0.0 0.00 0.13 0.00 86 1015.4
20260508033906 48 5 0.0 0.0 0.00 0.14 0.00 86 1015.3
20260508033406 48 5 0.0 0.0 0.00 0.14 0.00 86 1015.5
20260508032915 48 5 0.0 0.0 0.00 0.14 0.00 86 1015.5
20260508032406 48 5 0.0 0.0 0.00 0.14 0.00 86 1015.6
20260508031912 48 5 0.0 0.0 0.00 0.14 0.00 86 1015.6
20260508031412 49 5 0.0 0.0 0.00 0.14 0.00 86 1015.6
20260508030912 49 5 0.0 0.0 0.00 0.14 0.00 86 1015.5
20260508030412 49 5 0.0 0.0 0.00 0.14 0.00 86 1015.5
20260508025906 49 5 0.0 0.0 0.00 0.14 0.00 86 1015.6
20260508025409 49 5 0.0 0.0 0.00 0.14 0.00 86 1015.5
20260508024909 49 5 0.0 0.0 0.00 0.14 0.00 86 1015.3
20260508024406 49 5 0.0 0.0 0.00 0.14 0.00 86 1015.3
20260508023909 50 5 0.0 0.0 0.00 0.14 0.00 86 1015.2
20260508023406 50 5 0.0 0.0 0.00 0.14 0.00 86 1015.1
20260508022906 50 5 0.0 0.0 0.00 0.14 0.00 86 1015.0
20260508022406 50 5 0.0 0.0 0.00 0.14 0.00 86 1015.0
20260508021906 50 5 0.0 0.0 0.00 0.14 0.00 85 1014.8
20260508021412 50 5 0.0 0.0 0.00 0.14 0.00 85 1014.8
20260508020912 50 5 0.0 0.0 0.00 0.14 0.00 85 1014.7
20260508020406 50 5 0.0 1.0 0.00 0.16 0.00 85 1014.7
20260508015912 50 5 0.0 0.0 0.00 0.17 0.00 85 1014.8
20260508015406 50 5 0.0 0.0 0.00 0.17 0.00 85 1014.7
20260508014909 50 5 0.0 0.0 0.00 0.17 0.00 84 1014.6
20260508014409 50 5 0.0 0.0 0.00 0.17 0.00 84 1014.5
20260508013906 50 5 0.0 0.0 0.00 0.17 0.00 84 1014.4
20260508013412 50 5 0.0 0.0 0.00 0.18 0.00 83 1014.4
20260508012912 51 5 0.0 0.0 0.00 0.18 0.00 83 1014.3
20260508012409 51 5 0.0 0.0 0.00 0.18 0.00 83 1014.3
20260508011500 51 5 0.0 0.0 0.00 0.21 0.00 82 1014.1
20260508011004 52 5 0.0 0.0 0.00 0.21 0.00 82 1014.1
20260508010507 52 5 0.0 0.0 0.00 0.21 0.00 81 1014.1
20260508010000 52 5 0.0 0.0 0.00 0.22 0.00 81 1014.0
20260508005507 53 5 0.0 0.0 0.00 0.22 0.00 81 1013.9
20260508005004 53 5 0.0 1.0 0.00 0.22 0.00 80 1013.9
20260508004501 53 5 0.0 0.0 0.00 0.22 0.00 80 1013.9
20260508004001 53 5 0.0 1.0 0.00 0.23 0.00 80 1013.9
20260508003507 53 5 0.0 1.0 0.00 0.24 0.00 79 1013.9
20260508003000 54 5 0.0 1.0 0.00 0.25 0.00 79 1013.8
20260508002504 54 5 1.0 3.0 0.00 0.26 0.00 78 1013.7
20260508002007 54 0 0.0 2.0 0.00 0.26 0.00 78 1013.7
20260508001510 54 0 1.0 3.0 0.00 0.26 0.00 77 1013.6
20260508001000 54 0 1.0 2.0 0.00 0.26 0.00 76 1013.5
20260508000500 55 15 1.0 4.0 0.00 0.26 0.00 76 1013.6
20260508000004 55 34 0.0 2.0 0.00 0.26 0.00 76 1013.6
20260507235501 56 34 0.0 2.0 0.00 0.26 0.00 75 1013.5
20260507235001 56 309 1.0 3.0 0.00 0.26 0.00 74 1013.6
20260507234504 57 68 1.0 3.0 0.00 0.26 0.00 73 1013.6
20260507234000 57 319 0.0 5.0 0.00 0.26 0.00 73 1013.5
20260507233504 57 11 2.0 4.0 0.00 0.27 0.00 74 1013.5
20260507233007 57 317 0.0 3.0 0.00 0.28 0.00 74 1013.5
20260507232500 57 55 2.0 2.0 0.00 0.28 0.00 73 1013.5
20260507232001 57 344 0.0 5.0 0.00 0.28 0.00 73 1013.6
20260507231507 56 22 2.0 4.0 0.00 0.28 0.00 74 1013.5
20260507231001 56 303 0.0 4.0 0.00 0.28 0.00 74 1013.5
20260507230504 56 277 1.0 3.0 0.00 0.28 0.00 75 1013.5
20260507230000 56 321 0.0 8.0 0.00 0.30 0.00 74 1013.5
20260507225503 56 329 1.0 10.0 0.00 0.30 0.00 74 1013.6
20260507225001 56 38 2.0 5.0 0.00 0.31 0.00 75 1013.6
20260507224507 56 292 5.0 7.0 0.00 0.31 0.00 74 1013.6
20260507224001 56 33 1.0 5.0 0.00 0.32 0.00 74 1013.5
20260507223504 57 17 0.0 4.0 0.00 0.32 0.00 73 1013.4
20260507223004 57 351 0.0 4.0 0.00 0.32 0.00 73 1013.4
20260507222500 57 38 0.0 4.0 0.00 0.32 0.00 73 1013.4
20260507222001 57 107 2.0 3.0 0.00 0.32 0.00 73 1013.3
20260507221500 57 9 3.0 5.0 0.00 0.32 0.00 74 1013.4
20260507221007 56 355 0.0 3.0 0.00 0.32 0.00 75 1013.3
20260507220501 56 311 2.0 6.0 0.00 0.32 0.00 74 1013.3
20260507220004 56 319 2.0 5.0 0.00 0.32 0.00 75 1013.2
20260507215501 56 309 0.0 5.0 0.00 0.32 0.00 75 1013.2
20260507215004 56 313 0.0 6.0 0.00 0.32 0.00 74 1013.0
20260507214504 56 13 0.0 6.0 0.00 0.32 0.00 75 1012.9
20260507214000 55 84 2.0 6.0 0.00 0.32 0.00 76 1012.8
20260507213506 55 342 3.0 4.0 0.00 0.32 0.00 77 1012.7
20260507213001 55 315 1.0 6.0 0.00 0.32 0.00 77 1012.7
20260507212502 55 22 2.0 4.0 0.00 0.32 0.00 76 1012.7
20260507212003 55 9 2.0 8.0 0.00 0.33 0.00 76 1012.7
20260507211501 56 34 1.0 4.0 0.00 0.33 0.00 76 1012.5
20260507211000 56 61 4.0 6.0 0.00 0.33 0.00 76 1012.4
20260507210501 57 355 2.0 6.0 0.00 0.33 0.00 75 1012.2
20260507210001 57 11 0.0 4.0 0.00 0.33 0.00 75 1012.0
20260507205500 58 27 4.0 8.0 0.00 0.33 0.00 74 1012.1
20260507205000 58 84 2.0 9.0 0.00 0.33 0.00 75 1012.0